K8MUD Weather Reports


time (UTC)temp
C
wind
direction
speed
KPH
gust
KPH
rain 1hr
cm
rain 24hr
cm
rain mn
cm
humidity
%
barometer
mb
20260510192547 16 278 12.9 27.4 0.00 0.30 0.00 34 1017.6
20260510192502 16 278 12.9 27.4 0.00 0.30 0.00 35 1017.6
20260510192047 15 290 12.9 27.4 0.00 0.30 0.00 35 1017.7
20260510192002 15 291 12.9 27.4 0.00 0.30 0.00 35 1017.7
20260510191547 15 329 6.4 20.9 0.00 0.33 0.00 35 1017.7
20260510191501 14 330 6.4 20.9 0.00 0.33 0.00 35 1017.7
20260510191047 14 46 4.8 16.1 0.00 0.33 0.00 50 1017.8
20260510191001 14 46 4.8 16.1 0.00 0.33 0.00 50 1017.8
20260510190547 14 54 6.4 16.1 0.00 0.36 0.00 47 1017.8
20260510190502 14 54 6.4 16.1 0.00 0.36 0.00 47 1017.8
20260510190047 14 117 4.8 11.3 0.00 0.36 0.00 46 1017.6
20260510190002 14 118 4.8 11.3 0.00 0.36 0.00 46 1017.6
20260510185547 14 159 4.8 11.3 0.00 0.43 0.00 52 1017.6
20260510185523 14 159 4.8 11.3 0.00 0.43 0.00 52 1017.6
20260510185047 14 147 4.8 12.9 0.00 0.43 0.00 53 1017.5
20260510185002 14 147 4.8 12.9 0.00 0.43 0.00 57 1017.5
20260510184547 13 146 6.4 12.9 0.00 0.43 0.00 55 1017.5
20260510184501 13 146 6.4 12.9 0.00 0.43 0.00 55 1017.5
20260510184047 14 157 6.4 12.9 0.00 0.43 0.00 54 1017.6
20260510184001 14 157 6.4 12.9 0.00 0.43 0.00 54 1017.6
20260510183547 14 140 6.4 12.9 0.00 0.43 0.00 55 1017.6
20260510183502 14 140 6.4 12.9 0.00 0.43 0.00 55 1017.6
20260510183047 14 116 4.8 11.3 0.00 0.43 0.00 56 1017.5
20260510183002 14 116 4.8 11.3 0.00 0.43 0.00 56 1017.5
20260510182547 15 118 3.2 8.0 0.00 0.43 0.00 52 1017.5
20260510182502 15 118 3.2 8.0 0.00 0.43 0.00 52 1017.5
20260510182046 15 104 3.2 9.7 0.00 0.43 0.00 53 1017.5
20260510182001 15 104 3.2 9.7 0.00 0.43 0.00 53 1017.5
20260510181546 15 118 3.2 11.3 0.00 0.43 0.00 48 1017.5
20260510181502 15 119 3.2 11.3 0.00 0.43 0.00 47 1017.5
20260510181046 15 144 3.2 11.3 0.00 0.43 0.00 49 1017.4
20260510181002 15 144 3.2 11.3 0.00 0.43 0.00 49 1017.4
20260510180546 15 144 4.8 12.9 0.00 0.43 0.00 50 1017.3
20260510180522 15 144 4.8 12.9 0.00 0.43 0.00 50 1017.3
20260510180046 15 133 4.8 12.9 0.00 0.43 0.00 48 1017.3
20260510180023 15 133 4.8 12.9 0.00 0.43 0.00 48 1017.3
20260510175546 14 119 3.2 9.7 0.00 0.43 0.00 49 1017.3
20260510175502 14 119 3.2 9.7 0.00 0.43 0.00 49 1017.3
20260510175046 14 115 6.4 14.5 0.00 0.43 0.00 55 1017.4
20260510175002 14 115 6.4 14.5 0.00 0.43 0.00 55 1017.4
20260510174546 13 128 8.0 16.1 0.00 0.43 0.00 60 1017.2
20260510174502 13 128 8.0 16.1 0.00 0.43 0.00 60 1017.2
20260510174046 13 136 6.4 16.1 0.00 0.43 0.00 56 1017.3
20260510174002 13 136 6.4 16.1 0.00 0.43 0.00 56 1017.3
20260510173546 13 114 4.8 14.5 0.00 0.43 0.00 56 1017.3
20260510173501 13 113 4.8 14.5 0.00 0.43 0.00 56 1017.3
20260510173046 13 120 4.8 11.3 0.00 0.43 0.00 56 1017.2
20260510173002 13 120 4.8 11.3 0.00 0.43 0.00 56 1017.2
20260510172546 13 133 4.8 12.9 0.00 0.43 0.00 55 1017.4
20260510172502 13 133 4.8 12.9 0.00 0.43 0.00 55 1017.4
20260510172046 13 119 4.8 12.9 0.00 0.43 0.00 55 1017.3
20260510172002 13 119 4.8 12.9 0.00 0.43 0.00 55 1017.3
20260510171545 13 146 4.8 11.3 0.00 0.43 0.00 58 1017.5
20260510171502 13 146 4.8 11.3 0.00 0.43 0.00 58 1017.5
20260510171045 13 155 4.8 12.9 0.00 0.43 0.00 59 1017.5
20260510171002 13 155 4.8 12.9 0.00 0.43 0.00 59 1017.5
20260510170545 13 133 4.8 14.5 0.00 0.43 0.00 57 1017.6
20260510170502 13 133 4.8 14.5 0.00 0.43 0.00 57 1017.6
20260510170045 13 135 6.4 14.5 0.00 0.43 0.00 53 1017.4
20260510170001 13 135 6.4 14.5 0.00 0.43 0.00 53 1017.4
20260510165545 13 147 4.8 14.5 0.00 0.43 0.00 57 1017.5
20260510165502 13 147 4.8 14.5 0.00 0.43 0.00 57 1017.5
20260510165045 13 141 4.8 14.5 0.00 0.43 0.00 57 1017.5
20260510165002 13 141 4.8 14.5 0.00 0.43 0.00 57 1017.5
20260510164545 12 132 4.8 14.5 0.00 0.43 0.00 59 1017.5
20260510164502 12 132 4.8 14.5 0.00 0.43 0.00 59 1017.5
20260510164045 12 124 4.8 11.3 0.00 0.43 0.00 61 1017.6
20260510164002 12 124 4.8 11.3 0.00 0.43 0.00 61 1017.6
20260510163545 12 116 4.8 11.3 0.00 0.43 0.00 57 1017.5
20260510163502 12 116 4.8 11.3 0.00 0.43 0.00 57 1017.5
20260510163045 12 130 4.8 16.1 0.00 0.43 0.00 57 1017.5
20260510163001 12 130 4.8 16.1 0.00 0.43 0.00 57 1017.5
20260510162545 12 139 4.8 16.1 0.00 0.43 0.00 56 1017.5
20260510162523 12 139 4.8 16.1 0.00 0.43 0.00 56 1017.5
20260510162045 12 140 4.8 12.9 0.00 0.43 0.00 59 1017.6
20260510162002 12 139 4.8 12.9 0.00 0.43 0.00 59 1017.6
20260510161545 11 118 4.8 12.9 0.00 0.43 0.00 59 1017.4
20260510161502 11 118 4.8 12.9 0.00 0.43 0.00 59 1017.4
20260510161045 11 94 6.4 14.5 0.00 0.43 0.00 58 1017.4
20260510161002 11 94 6.4 14.5 0.00 0.43 0.00 58 1017.4
20260510160545 11 90 6.4 14.5 0.00 0.43 0.00 59 1017.2
20260510160502 11 90 6.4 14.5 0.00 0.43 0.00 59 1017.2
20260510160044 11 105 4.8 11.3 0.00 0.43 0.00 61 1017.3
20260510160002 11 105 4.8 11.3 0.00 0.43 0.00 62 1017.3
20260510155544 11 117 4.8 11.3 0.00 0.43 0.00 62 1017.2
20260510155502 11 118 4.8 11.3 0.00 0.43 0.00 62 1017.2
20260510155044 11 103 4.8 11.3 0.00 0.43 0.00 59 1017.4
20260510155002 11 103 4.8 11.3 0.00 0.43 0.00 59 1017.4
20260510154544 11 119 4.8 11.3 0.00 0.43 0.00 61 1017.2
20260510154502 11 119 4.8 11.3 0.00 0.43 0.00 61 1017.3
20260510154044 11 125 3.2 9.7 0.00 0.43 0.00 61 1017.2
20260510154002 11 125 3.2 9.7 0.00 0.43 0.00 61 1017.2
20260510153544 11 107 3.2 11.3 0.00 0.43 0.00 61 1017.2
20260510153523 11 107 3.2 11.3 0.00 0.43 0.00 61 1017.2
20260510153044 11 106 3.2 11.3 0.00 0.43 0.00 57 1017.0
20260510153003 11 106 3.2 11.3 0.00 0.43 0.00 57 1017.0
20260510152544 11 111 3.2 9.7 0.00 0.43 0.00 55 1017.1
20260510152502 11 111 3.2 9.7 0.00 0.43 0.00 56 1017.1
20260510152044 11 99 4.8 12.9 0.00 0.43 0.00 58 1017.0
20260510152002 11 98 4.8 12.9 0.00 0.43 0.00 58 1017.0
20260510151544 11 76 4.8 12.9 0.00 0.43 0.00 57 1017.0
20260510151502 11 76 4.8 12.9 0.00 0.43 0.00 57 1017.0
20260510151044 12 354 3.2 11.3 0.00 0.43 0.00 52 1017.1
20260510151002 12 353 3.2 11.3 0.00 0.43 0.00 52 1017.1
20260510150543 12 292 3.2 11.3 0.00 0.43 0.00 47 1016.9
20260510150502 12 291 3.2 11.3 0.00 0.43 0.00 47 1016.9
20260510150043 12 257 3.2 9.7 0.00 0.43 0.00 47 1016.9
20260510150002 12 258 3.2 11.3 0.00 0.43 0.00 47 1016.9
20260510145544 12 276 3.2 11.3 0.00 0.43 0.00 52 1016.8
20260510145502 12 276 3.2 11.3 0.00 0.43 0.00 52 1016.8
20260510145043 11 308 3.2 11.3 0.00 0.43 0.00 49 1016.6
20260510145002 11 308 3.2 11.3 0.00 0.43 0.00 49 1016.6
20260510144543 11 320 4.8 14.5 0.00 0.43 0.00 48 1016.7
20260510144502 11 320 4.8 14.5 0.00 0.43 0.00 48 1016.7
20260510144043 11 310 6.4 14.5 0.00 0.43 0.00 47 1016.7
20260510144002 11 310 6.4 14.5 0.00 0.43 0.00 47 1016.7
20260510143543 11 289 4.8 14.5 0.00 0.43 0.00 47 1016.6
20260510143502 11 289 4.8 14.5 0.00 0.43 0.00 47 1016.6
20260510143043 11 279 3.2 12.9 0.00 0.43 0.00 48 1016.7
20260510143002 11 279 3.2 12.9 0.00 0.43 0.00 48 1016.7
20260510142543 11 307 4.8 12.9 0.00 0.43 0.00 47 1016.7
20260510142502 11 308 4.8 12.9 0.00 0.43 0.00 47 1016.7
20260510142043 11 318 3.2 11.3 0.00 0.43 0.00 49 1016.6
20260510142002 11 318 3.2 11.3 0.00 0.43 0.00 49 1016.6
20260510141543 11 318 3.2 12.9 0.00 0.43 0.00 48 1016.6
20260510141502 11 318 3.2 12.9 0.00 0.43 0.00 48 1016.6
20260510141043 11 306 4.8 14.5 0.00 0.43 0.00 48 1016.7
20260510141002 11 306 4.8 14.5 0.00 0.43 0.00 48 1016.7
20260510140543 11 306 4.8 14.5 0.00 0.43 0.00 48 1016.6
20260510140502 11 306 4.8 14.5 0.00 0.43 0.00 48 1016.6
20260510140042 11 329 4.8 8.0 0.00 0.43 0.00 50 1016.5
20260510140003 11 330 4.8 8.0 0.00 0.43 0.00 50 1016.5
20260510135542 11 25 3.2 8.0 0.00 0.43 0.00 49 1016.6
20260510135502 11 25 3.2 8.0 0.00 0.43 0.00 49 1016.6
20260510135042 11 344 4.8 14.5 0.00 0.43 0.00 50 1016.5
20260510135002 11 343 4.8 14.5 0.00 0.43 0.00 50 1016.5
20260510134542 11 299 4.8 14.5 0.00 0.43 0.00 48 1016.5
20260510134503 11 298 4.8 14.5 0.00 0.43 0.00 48 1016.5
20260510134042 11 291 4.8 12.9 0.00 0.43 0.00 50 1016.4
20260510134002 11 291 4.8 12.9 0.00 0.43 0.00 50 1016.4
20260510133542 10 326 4.8 11.3 0.00 0.43 0.00 52 1016.4
20260510133501 10 326 4.8 11.3 0.00 0.43 0.00 52 1016.4
20260510133042 10 348 4.8 8.0 0.00 0.43 0.00 50 1016.3
20260510133024 10 348 4.8 8.0 0.00 0.43 0.00 50 1016.3
20260510132542 10 336 4.8 14.5 0.00 0.43 0.00 50 1016.2
20260510132502 10 336 4.8 14.5 0.00 0.43 0.00 50 1016.2
20260510132042 10 326 4.8 14.5 0.00 0.43 0.00 49 1016.2
20260510132003 10 326 4.8 14.5 0.00 0.43 0.00 49 1016.2
20260510131542 10 314 4.8 9.7 0.00 0.43 0.00 50 1016.1
20260510131502 10 314 4.8 9.7 0.00 0.43 0.00 50 1016.1
20260510131042 10 319 4.8 12.9 0.00 0.43 0.00 55 1016.2
20260510131023 10 319 4.8 12.9 0.00 0.43 0.00 55 1016.2
20260510130542 10 330 4.8 12.9 0.00 0.43 0.00 58 1016.1
20260510130503 10 330 4.8 12.9 0.00 0.43 0.00 58 1016.1
20260510130042 9 335 4.8 9.7 0.00 0.43 0.00 56 1016.0
20260510130002 9 335 4.8 9.7 0.00 0.43 0.00 56 1016.1
20260510125541 9 327 4.8 14.5 0.00 0.43 0.00 59 1016.0
20260510125502 9 327 4.8 14.5 0.00 0.43 0.00 59 1016.0
20260510125041 9 308 6.4 14.5 0.00 0.43 0.00 63 1015.9
20260510125003 9 307 6.4 14.5 0.00 0.43 0.00 63 1015.9
20260510124541 8 307 6.4 12.9 0.00 0.43 0.00 65 1015.9
20260510124502 8 307 6.4 12.9 0.00 0.43 0.00 65 1015.9
20260510124041 8 317 4.8 9.7 0.00 0.43 0.00 66 1015.9
20260510124002 8 317 4.8 9.7 0.00 0.43 0.00 66 1015.9
20260510123541 8 317 4.8 12.9 0.00 0.43 0.00 65 1015.9
20260510123502 8 317 4.8 12.9 0.00 0.43 0.00 65 1015.9
20260510123041 8 319 6.4 14.5 0.00 0.43 0.00 66 1015.8
20260510123002 8 320 6.4 14.5 0.00 0.43 0.00 66 1015.8
20260510122541 8 322 6.4 14.5 0.00 0.43 0.00 65 1015.9
20260510122503 8 321 6.4 14.5 0.00 0.43 0.00 65 1015.9
20260510122041 8 302 6.4 12.9 0.00 0.43 0.00 65 1015.8
20260510122002 8 301 6.4 12.9 0.00 0.43 0.00 65 1015.8
20260510121541 8 286 6.4 12.9 0.00 0.43 0.00 67 1015.7
20260510121502 8 287 6.4 12.9 0.00 0.43 0.00 67 1015.7
20260510121041 7 297 4.8 12.9 0.00 0.43 0.00 69 1015.7
20260510121003 7 297 4.8 12.9 0.00 0.43 0.00 69 1015.7
20260510120541 7 295 4.8 12.9 0.00 0.43 0.00 69 1015.6
20260510120503 7 295 4.8 12.9 0.00 0.43 0.00 69 1015.6
20260510120041 7 301 4.8 9.7 0.00 0.43 0.00 72 1015.4
20260510120003 7 301 4.8 9.7 0.00 0.43 0.00 72 1015.4
20260510115540 7 320 4.8 9.7 0.00 0.43 0.00 72 1015.4
20260510115523 7 320 4.8 9.7 0.00 0.43 0.00 72 1015.4
20260510115040 7 309 4.8 11.3 0.00 0.43 0.00 70 1015.3
20260510115002 7 309 4.8 11.3 0.00 0.43 0.00 70 1015.3
20260510114540 7 301 6.4 11.3 0.00 0.43 0.00 71 1015.2
20260510114503 7 301 6.4 11.3 0.00 0.43 0.00 71 1015.2
20260510114040 7 306 6.4 12.9 0.00 0.43 0.00 71 1015.2
20260510114002 7 306 6.4 12.9 0.00 0.43 0.00 71 1015.2
20260510113540 6 303 4.8 12.9 0.00 0.43 0.00 73 1015.2
20260510113502 6 303 4.8 12.9 0.00 0.43 0.00 73 1015.2
20260510113040 6 306 4.8 11.3 0.00 0.43 0.00 75 1014.9
20260510113002 6 306 4.8 11.3 0.00 0.43 0.00 75 1014.9
20260510112540 6 330 4.8 11.3 0.00 0.43 0.00 76 1015.0
20260510112523 6 331 4.8 11.3 0.00 0.43 0.00 76 1015.0
20260510112040 6 5 3.2 6.4 0.00 0.43 0.00 79 1014.7
20260510112002 6 5 3.2 6.4 0.00 0.43 0.00 79 1014.7
20260510111540 6 16 3.2 6.4 0.00 0.43 0.00 82 1014.7
20260510111523 6 16 3.2 6.4 0.00 0.43 0.00 82 1014.7
20260510111040 5 17 3.2 4.8 0.00 0.43 0.00 84 1014.6
20260510111002 5 17 3.2 4.8 0.00 0.43 0.00 84 1014.6
20260510110540 5 17 3.2 4.8 0.00 0.43 0.00 84 1014.5
20260510110502 5 17 3.2 4.8 0.00 0.43 0.00 84 1014.5
20260510110040 5 17 3.2 4.8 0.00 0.43 0.00 84 1014.6
20260510110023 5 17 3.2 4.8 0.00 0.43 0.00 84 1014.6
20260510105540 5 17 3.2 4.8 0.00 0.43 0.00 84 1014.6
20260510105503 5 17 3.2 4.8 0.00 0.43 0.00 84 1014.6
20260510105040 4 17 3.2 4.8 0.00 0.43 0.00 85 1014.4
20260510105002 4 17 3.2 4.8 0.00 0.43 0.00 85 1014.4
20260510104539 4 17 1.6 4.8 0.00 0.43 0.00 84 1014.6
20260510104523 4 17 1.6 4.8 0.00 0.43 0.00 84 1014.6
20260510104039 4 17 1.6 4.8 0.00 0.43 0.00 83 1014.3
20260510104003 4 17 1.6 4.8 0.00 0.43 0.00 83 1014.3
20260510103539 4 17 0.0 4.8 0.00 0.43 0.00 82 1014.2
20260510103524 4 17 0.0 3.2 0.00 0.43 0.00 82 1014.2
20260510103039 4 0 0.0 0.0 0.00 0.43 0.00 81 1014.0
20260510103024 4 0 0.0 0.0 0.00 0.43 0.00 81 1014.0
20260510102539 4 0 0.0 0.0 0.00 0.43 0.00 81 1014.0
20260510102503 4 0 0.0 0.0 0.00 0.43 0.00 81 1014.0
20260510102039 4 0 0.0 0.0 0.00 0.43 0.00 81 1014.0
20260510102003 4 0 0.0 0.0 0.00 0.43 0.00 81 1014.0
20260510101539 4 0 0.0 0.0 0.00 0.43 0.00 81 1013.9
20260510101502 4 0 0.0 0.0 0.00 0.43 0.00 81 1013.9
20260510101039 4 0 0.0 0.0 0.00 0.43 0.00 80 1013.9
20260510101024 4 0 0.0 0.0 0.00 0.43 0.00 80 1013.9
20260510100539 4 0 0.0 0.0 0.00 0.43 0.00 80 1013.8
20260510100502 4 0 0.0 0.0 0.00 0.43 0.00 80 1013.8
20260510100039 4 0 0.0 0.0 0.00 0.43 0.00 80 1013.9
20260510100003 4 0 0.0 0.0 0.00 0.43 0.00 80 1013.9
20260510095539 4 0 0.0 0.0 0.00 0.43 0.00 80 1013.9
20260510095502 4 0 0.0 0.0 0.00 0.43 0.00 80 1013.9
20260510095039 5 0 0.0 0.0 0.00 0.43 0.00 79 1013.9
20260510095002 5 0 0.0 0.0 0.00 0.43 0.00 79 1013.9
20260510094539 5 0 0.0 0.0 0.00 0.43 0.00 78 1013.8
20260510094503 5 0 0.0 0.0 0.00 0.43 0.00 78 1013.8
20260510094039 5 0 0.0 0.0 0.00 0.43 0.00 78 1013.8
20260510094003 5 0 0.0 0.0 0.00 0.43 0.00 78 1013.8
20260510093538 5 0 0.0 0.0 0.00 0.43 0.00 78 1013.8
20260510093502 5 0 0.0 0.0 0.00 0.43 0.00 78 1013.8
20260510093038 5 0 0.0 0.0 0.00 0.43 0.00 78 1013.7
20260510093003 5 0 0.0 0.0 0.00 0.43 0.00 78 1013.7
20260510092538 5 0 0.0 0.0 0.00 0.43 0.00 77 1013.6
20260510092503 5 0 0.0 0.0 0.00 0.43 0.00 77 1013.6
20260510092038 5 0 0.0 0.0 0.00 0.43 0.00 77 1013.4
20260510092002 5 0 0.0 0.0 0.00 0.43 0.00 77 1013.4
20260510091538 5 0 0.0 0.0 0.00 0.43 0.00 77 1013.3
20260510091502 5 0 0.0 0.0 0.00 0.43 0.00 77 1013.3
20260510091038 5 0 0.0 0.0 0.00 0.43 0.00 76 1013.3
20260510091003 5 0 0.0 0.0 0.00 0.43 0.00 76 1013.3
20260510090538 5 0 0.0 0.0 0.00 0.43 0.00 76 1013.2
20260510090502 5 0 0.0 0.0 0.00 0.43 0.00 76 1013.2
20260510090038 6 0 0.0 0.0 0.00 0.43 0.00 76 1013.1
20260510090002 6 0 0.0 0.0 0.00 0.43 0.00 76 1013.1
20260510085538 6 0 0.0 0.0 0.00 0.43 0.00 76 1013.1
20260510085503 6 0 0.0 0.0 0.00 0.43 0.00 76 1013.0
20260510085038 6 0 0.0 0.0 0.00 0.43 0.00 75 1012.9
20260510085003 6 0 0.0 0.0 0.00 0.43 0.00 75 1012.9
20260510084538 6 0 0.0 0.0 0.00 0.43 0.00 75 1012.7
20260510084502 6 0 0.0 0.0 0.00 0.43 0.00 75 1012.7
20260510084038 6 0 0.0 0.0 0.00 0.43 0.00 74 1012.6
20260510084003 6 0 0.0 0.0 0.00 0.43 0.00 74 1012.6
20260510083538 6 0 0.0 0.0 0.00 0.43 0.00 74 1012.5
20260510083502 6 0 0.0 0.0 0.00 0.43 0.00 74 1012.5
20260510083037 6 0 0.0 0.0 0.00 0.43 0.00 74 1012.4
20260510083003 6 0 0.0 0.0 0.00 0.43 0.00 74 1012.4
20260510082537 6 0 0.0 0.0 0.00 0.43 0.00 74 1012.4
20260510082502 6 0 0.0 0.0 0.00 0.43 0.00 74 1012.4
20260510082037 6 0 0.0 0.0 0.00 0.43 0.00 74 1012.3
20260510082003 6 0 0.0 0.0 0.00 0.43 0.00 74 1012.3
20260510081537 6 17 0.0 4.8 0.00 0.43 0.00 74 1012.2
20260510081503 6 17 0.0 4.8 0.00 0.43 0.00 74 1012.2
20260510081037 7 17 0.0 4.8 0.00 0.43 0.00 73 1012.1
20260510081023 7 17 0.0 4.8 0.00 0.43 0.00 73 1012.1
20260510080537 7 17 0.0 4.8 0.00 0.43 0.00 73 1011.9
20260510080524 7 17 0.0 4.8 0.00 0.43 0.00 73 1011.9
20260510080037 7 17 1.6 4.8 0.00 0.43 0.00 73 1011.8
20260510080002 7 17 1.6 4.8 0.00 0.43 0.00 72 1011.8
20260510075537 7 17 1.6 6.4 0.00 0.43 0.00 72 1011.7
20260510075524 7 17 1.6 6.4 0.00 0.43 0.00 72 1011.7
20260510075037 7 17 0.0 6.4 0.00 0.43 0.00 71 1011.4
20260510075003 7 17 0.0 6.4 0.00 0.43 0.00 71 1011.4
20260510074537 7 18 0.0 3.2 0.00 0.43 0.00 71 1011.4
20260510074503 7 18 0.0 3.2 0.00 0.43 0.00 71 1011.4
20260510074037 7 12 1.6 12.9 0.00 0.43 0.00 71 1011.2
20260510074003 7 12 1.6 12.9 0.00 0.43 0.00 71 1011.2
20260510073537 7 10 3.2 12.9 0.00 0.43 0.00 71 1011.1
20260510073503 7 10 3.2 12.9 0.00 0.43 0.00 71 1011.1
20260510073037 7 12 3.2 8.0 0.00 0.43 0.00 71 1011.0
20260510073002 7 12 3.2 8.0 0.00 0.43 0.00 71 1011.0
20260510072537 8 20 1.6 8.0 0.00 0.43 0.00 72 1011.1
20260510072503 8 20 1.6 8.0 0.00 0.43 0.00 72 1011.1
20260510072036 8 36 1.6 8.0 0.00 0.43 0.00 72 1011.0
20260510072002 8 36 1.6 8.0 0.00 0.43 0.00 72 1011.0
20260510071536 8 49 1.6 8.0 0.00 0.43 0.00 72 1010.9
20260510071503 8 49 1.6 8.0 0.00 0.43 0.00 72 1010.9
20260510071036 8 60 3.2 9.7 0.00 0.43 0.00 73 1010.9
20260510071003 8 60 3.2 9.7 0.00 0.43 0.00 73 1010.9
20260510070536 8 62 3.2 9.7 0.00 0.43 0.00 72 1010.8
20260510070503 8 62 3.2 9.7 0.00 0.43 0.00 72 1010.8
20260510070036 8 48 3.2 8.0 0.00 0.43 0.00 71 1010.9
20260510070003 8 48 3.2 8.0 0.00 0.43 0.00 71 1010.9
20260510065536 9 56 4.8 17.7 0.00 0.43 0.00 72 1010.8
20260510065503 9 56 4.8 17.7 0.00 0.43 0.00 72 1010.8
20260510065036 9 66 6.4 17.7 0.00 0.43 0.00 73 1010.7
20260510065002 9 66 6.4 17.7 0.00 0.43 0.00 73 1010.7
20260510064536 9 64 6.4 16.1 0.00 0.43 0.00 72 1010.7
20260510064503 9 64 6.4 16.1 0.00 0.43 0.00 72 1010.7
20260510064036 10 64 4.8 14.5 0.00 0.43 0.00 72 1010.7
20260510064003 10 64 4.8 14.5 0.00 0.43 0.00 72 1010.7
20260510063536 10 62 4.8 12.9 0.00 0.43 0.00 70 1010.6
20260510063504 10 62 4.8 12.9 0.00 0.43 0.00 70 1010.6
20260510063036 10 60 4.8 9.7 0.00 0.43 0.00 69 1010.6
20260510063024 10 60 4.8 9.7 0.00 0.43 0.00 69 1010.6
20260510062536 10 64 4.8 12.9 0.00 0.43 0.00 69 1010.5
20260510062503 10 64 4.8 12.9 0.00 0.43 0.00 69 1010.5
20260510062036 10 70 1.6 12.9 0.00 0.43 0.00 66 1010.4
20260510062002 10 70 1.6 12.9 0.00 0.43 0.00 66 1010.4
20260510061535 10 0 0.0 0.0 0.00 0.43 0.00 65 1010.3
20260510061504 10 0 0.0 0.0 0.00 0.43 0.00 65 1010.3
20260510061035 10 0 0.0 0.0 0.00 0.43 0.00 64 1010.2
20260510061024 10 0 0.0 0.0 0.00 0.43 0.00 64 1010.2
20260510060535 10 0 0.0 0.0 0.00 0.43 0.00 64 1010.0
20260510060503 10 0 0.0 0.0 0.00 0.43 0.00 64 1010.0
20260510060035 10 0 0.0 0.0 0.00 0.43 0.00 63 1009.9
20260510060024 10 0 0.0 0.0 0.00 0.43 0.00 63 1009.9
20260510055535 10 0 0.0 0.0 0.00 0.43 0.00 62 1009.9
20260510055503 10 0 0.0 0.0 0.00 0.43 0.00 62 1009.9
20260510055035 10 0 0.0 0.0 0.00 0.43 0.00 62 1009.8
20260510055003 10 0 0.0 0.0 0.00 0.43 0.00 62 1009.8
20260510054535 10 0 0.0 0.0 0.00 0.43 0.00 61 1009.9
20260510054503 10 0 0.0 0.0 0.00 0.43 0.00 61 1009.9
20260510054035 11 0 0.0 0.0 0.00 0.43 0.00 61 1009.9
20260510054004 11 0 0.0 0.0 0.00 0.43 0.00 61 1009.9
20260510053535 11 0 0.0 0.0 0.00 0.43 0.00 60 1009.7
20260510053503 11 0 0.0 0.0 0.00 0.43 0.00 60 1009.7
20260510053035 11 0 0.0 0.0 0.00 0.43 0.00 60 1009.7
20260510053003 11 0 0.0 0.0 0.00 0.43 0.00 60 1009.7
20260510052535 11 0 0.0 0.0 0.00 0.43 0.00 60 1009.6
20260510052523 11 0 0.0 0.0 0.00 0.43 0.00 60 1009.6
20260510052035 11 0 0.0 0.0 0.00 0.43 0.00 59 1009.5
20260510052003 11 0 0.0 0.0 0.00 0.43 0.00 59 1009.4
20260510051535 11 0 0.0 0.0 0.00 0.43 0.00 59 1009.5
20260510051503 11 0 0.0 0.0 0.00 0.43 0.00 59 1009.5
20260510051035 11 0 0.0 0.0 0.00 0.43 0.00 59 1009.5
20260510051003 11 0 0.0 0.0 0.00 0.43 0.00 59 1009.5
20260510050535 11 328 1.6 9.7 0.00 0.43 0.00 59 1009.3
20260510050503 11 328 1.6 9.7 0.00 0.43 0.00 59 1009.3
20260510050035 11 336 3.2 9.7 0.00 0.43 0.00 58 1009.1
20260510050003 11 336 3.2 9.7 0.00 0.43 0.00 58 1009.1
20260510045534 12 345 3.2 8.0 0.00 0.43 0.00 58 1009.0
20260510045503 12 345 3.2 8.0 0.00 0.43 0.00 58 1009.0
20260510045034 12 349 3.2 6.4 0.00 0.43 0.00 58 1008.8
20260510045002 12 349 3.2 6.4 0.00 0.43 0.00 58 1008.8
20260510044534 12 355 3.2 6.4 0.00 0.43 0.00 58 1008.7
20260510044503 12 355 3.2 6.4 0.00 0.43 0.00 58 1008.7
20260510044034 12 353 3.2 8.0 0.00 0.43 0.00 57 1008.6
20260510044003 12 353 3.2 8.0 0.00 0.43 0.00 57 1008.6
20260510043534 12 357 3.2 8.0 0.00 0.43 0.00 57 1008.6
20260510043524 12 357 3.2 8.0 0.00 0.43 0.00 57 1008.6
20260510043034 12 11 1.6 8.0 0.00 0.43 0.00 58 1008.7
20260510043003 12 11 1.6 8.0 0.00 0.43 0.00 58 1008.7
20260510042534 12 13 1.6 8.0 0.00 0.43 0.00 58 1008.6
20260510042524 12 13 1.6 8.0 0.00 0.43 0.00 58 1008.6
20260510042034 12 5 1.6 4.8 0.00 0.43 0.00 58 1008.5
20260510042004 12 5 1.6 4.8 0.00 0.43 0.00 58 1008.5
20260510041534 12 356 1.6 8.0 0.00 0.43 0.00 58 1008.4
20260510041503 12 355 1.6 8.0 0.00 0.43 0.00 58 1008.4
20260510041034 12 336 3.2 8.0 0.00 0.43 0.00 58 1008.3
20260510041003 12 336 3.2 8.0 0.00 0.43 0.00 58 1008.3
20260510040534 12 351 3.2 8.0 0.00 0.43 0.00 57 1008.2
20260510040503 12 351 3.2 8.0 0.00 0.43 0.00 57 1008.2
20260510040034 13 2 3.2 11.3 0.00 0.43 0.00 57 1008.3
20260510040004 13 4 3.2 11.3 0.00 0.43 0.00 57 1008.3
20260510035533 13 358 3.2 11.3 0.00 0.43 0.43 57 1008.3
20260510035503 13 358 3.2 11.3 0.00 0.43 0.43 57 1008.3
20260510035033 13 1 6.4 14.5 0.00 0.43 0.43 56 1008.2
20260510035003 13 360 6.4 14.5 0.00 0.43 0.43 56 1008.2
20260510034533 13 355 6.4 14.5 0.00 0.43 0.43 56 1008.1
20260510034503 13 355 6.4 14.5 0.00 0.43 0.43 56 1008.1
20260510034033 13 352 4.8 14.5 0.00 0.43 0.43 56 1008.0
20260510034003 13 352 4.8 14.5 0.00 0.43 0.43 56 1008.0
20260510033533 13 353 6.4 17.7 0.00 0.43 0.43 56 1007.9
20260510033503 13 353 6.4 17.7 0.00 0.43 0.43 56 1007.9
20260510033033 13 346 8.0 17.7 0.00 0.43 0.43 55 1007.9
20260510033004 13 346 8.0 17.7 0.00 0.43 0.43 55 1007.9
20260510032533 13 345 8.0 20.9 0.00 0.43 0.43 55 1007.9
20260510032503 13 345 8.0 20.9 0.00 0.43 0.43 55 1007.9
20260510032033 14 358 8.0 20.9 0.00 0.43 0.43 55 1007.7
20260510032003 14 358 8.0 20.9 0.00 0.43 0.43 55 1007.7
20260510031533 14 353 6.4 20.9 0.00 0.43 0.43 56 1007.6
20260510031503 14 353 6.4 20.9 0.00 0.43 0.43 56 1007.6
20260510031033 15 345 4.8 16.1 0.00 0.43 0.43 56 1007.5
20260510031024 15 345 4.8 16.1 0.00 0.43 0.43 56 1007.5
20260510030533 15 350 3.2 12.9 0.00 0.43 0.43 55 1007.2
20260510030503 15 349 3.2 12.9 0.00 0.43 0.43 55 1007.2
20260510030033 15 343 6.4 20.9 0.00 0.43 0.43 54 1007.3
20260510030025 15 343 6.4 20.9 0.00 0.43 0.43 54 1007.3
20260510025533 15 335 6.4 20.9 0.00 0.43 0.43 52 1007.0
20260510025503 15 335 6.4 20.9 0.00 0.43 0.43 52 1007.0
20260510025033 15 337 8.0 20.9 0.00 0.43 0.43 51 1006.8
20260510025003 15 337 8.0 20.9 0.00 0.43 0.43 51 1006.8
20260510024532 16 345 8.0 20.9 0.00 0.43 0.43 50 1006.8
20260510024504 16 345 8.0 20.9 0.00 0.43 0.43 50 1006.8
20260510024032 16 335 9.7 24.1 0.00 0.43 0.43 51 1006.8
20260510024003 16 335 9.7 24.1 0.00 0.43 0.43 51 1006.8
20260510023532 16 339 11.3 24.1 0.00 0.43 0.43 50 1006.8
20260510023503 16 338 11.3 24.1 0.00 0.43 0.43 50 1006.8
20260510023032 16 343 9.7 22.5 0.00 0.43 0.43 51 1006.5
20260510023024 16 343 9.7 22.5 0.00 0.43 0.43 51 1006.5
20260510022532 16 328 6.4 19.3 0.00 0.43 0.43 54 1006.1
20260510022524 16 328 6.4 19.3 0.00 0.43 0.43 54 1006.1
20260510022032 16 300 3.2 8.0 0.00 0.43 0.43 57 1005.9
20260510022003 16 300 3.2 8.0 0.00 0.43 0.43 57 1005.9
20260510021532 16 299 3.2 4.8 0.00 0.43 0.43 57 1005.8
20260510021524 16 299 3.2 4.8 0.00 0.43 0.43 57 1005.8
20260510021032 16 299 1.6 4.8 0.00 0.43 0.43 56 1005.5
20260510021024 16 299 1.6 4.8 0.00 0.43 0.43 56 1005.5
20260510020532 16 299 1.6 3.2 0.00 0.43 0.43 55 1005.4
20260510020504 16 299 1.6 3.2 0.00 0.43 0.43 55 1005.4
20260510020032 16 299 1.6 4.8 0.00 0.43 0.43 54 1005.2
20260510020003 16 299 1.6 4.8 0.00 0.43 0.43 54 1005.2
20260510015532 16 299 3.2 4.8 0.00 0.43 0.43 53 1005.3
20260510015504 16 299 3.2 4.8 0.00 0.43 0.43 53 1005.3
20260510015032 16 299 3.2 4.8 0.00 0.43 0.43 53 1005.1
20260510015025 16 299 3.2 4.8 0.00 0.43 0.43 53 1005.1
20260510014532 16 299 3.2 6.4 0.00 0.43 0.43 52 1005.0
20260510014503 16 299 3.2 6.4 0.00 0.43 0.43 52 1005.0
20260510014032 17 298 1.6 6.4 0.00 0.43 0.43 51 1004.9
20260510014003 17 298 1.6 6.4 0.00 0.43 0.43 51 1004.9
20260510013531 17 298 1.6 4.8 0.00 0.43 0.43 51 1004.7
20260510013503 17 298 1.6 4.8 0.00 0.43 0.43 51 1004.7
20260510013031 17 298 1.6 4.8 0.00 0.43 0.43 50 1004.5
20260510013004 17 298 1.6 4.8 0.00 0.43 0.43 50 1004.5
20260510012531 17 298 1.6 4.8 0.00 0.43 0.43 50 1004.3
20260510012503 17 298 1.6 4.8 0.00 0.43 0.43 50 1004.3
20260510012031 17 298 1.6 4.8 0.00 0.43 0.43 49 1004.3
20260510012003 17 298 1.6 4.8 0.00 0.43 0.43 49 1004.3
20260510011531 17 298 0.0 3.2 0.00 0.43 0.43 49 1004.2
20260510011503 17 298 0.0 3.2 0.00 0.43 0.43 49 1004.2
20260510011031 18 298 1.6 4.8 0.00 0.43 0.43 48 1004.1
20260510011003 18 298 1.6 4.8 0.00 0.43 0.43 48 1004.1
20260510010531 18 298 3.2 6.4 0.00 0.43 0.43 47 1004.1
20260510010504 18 298 3.2 6.4 0.00 0.43 0.43 47 1004.1
20260510010031 18 295 3.2 6.4 0.00 0.43 0.43 47 1004.0
20260510010004 18 295 3.2 6.4 0.00 0.43 0.43 47 1004.0
20260510005531 18 290 4.8 9.7 0.00 0.43 0.43 46 1004.0
20260510005503 18 290 4.8 9.7 0.00 0.43 0.43 46 1004.0
20260510005031 18 294 4.8 12.9 0.00 0.43 0.43 46 1003.8
20260510005003 18 294 4.8 12.9 0.00 0.43 0.43 46 1003.8
20260510004531 18 303 6.4 12.9 0.00 0.43 0.43 46 1003.8
20260510004525 18 303 6.4 12.9 0.00 0.43 0.43 46 1003.8
20260510004031 18 312 6.4 14.5 0.00 0.43 0.43 45 1003.7
20260510004004 18 312 6.4 14.5 0.00 0.43 0.43 45 1003.7
20260510003501 19 303 6.4 14.5 0.00 0.43 0.43 44 1003.6
20260510003002 19 282 6.4 17.7 0.00 0.43 0.43 44 1003.4
20260510003000 19 280 6.4 17.7 0.00 0.43 0.43 44 1003.4
20260510002501 19 287 6.4 17.7 0.00 0.43 0.43 44 1003.4
20260510002001 19 287 6.4 12.9 0.00 0.43 0.43 44 1003.3
20260510001501 20 282 4.8 12.9 0.00 0.43 0.43 43 1003.2
20260510001002 20 288 6.4 16.1 0.00 0.43 0.43 43 1003.2
20260510001000 20 290 6.4 16.1 0.00 0.43 0.43 43 1003.2
20260510000502 20 286 8.0 16.1 0.00 0.43 0.43 42 1003.3
20260510000500 20 288 8.0 16.1 0.00 0.43 0.43 42 1003.3
20260510000001 20 292 8.0 17.7 0.00 0.43 0.43 42 1003.2
20260509235522 20 289 9.7 19.3 0.00 0.43 0.43 41 1003.1
20260509235500 20 290 11.3 19.3 0.00 0.43 0.43 41 1003.2
20260509235023 20 291 11.3 20.9 0.00 0.43 0.43 41 1003.2
20260509235000 20 294 11.3 25.7 0.00 0.43 0.43 41 1003.1
20260509234501 20 303 12.9 25.7 0.00 0.43 0.43 41 1003.1
20260509234001 20 301 12.9 25.7 0.00 0.43 0.43 39 1003.1
20260509233502 20 280 12.9 29.0 0.00 0.43 0.43 39 1003.1
20260509233500 20 275 12.9 29.0 0.00 0.43 0.43 39 1003.1
20260509233001 21 266 14.5 29.0 0.00 0.43 0.43 39 1003.1
20260509232501 21 269 14.5 27.4 0.00 0.43 0.43 38 1002.9
20260509232001 21 278 17.7 38.6 0.00 0.43 0.43 39 1002.8
20260509231501 21 279 20.9 38.6 0.00 0.43 0.43 39 1002.9
20260509231001 21 280 24.1 56.3 0.00 0.43 0.43 38 1002.9
20260509230502 21 284 24.1 56.3 0.00 0.43 0.43 37 1002.7
20260509230500 21 284 25.7 56.3 0.00 0.43 0.43 37 1002.7
20260509230001 21 283 24.1 41.8 0.00 0.43 0.43 37 1002.7
20260509225959 21 282 22.5 41.8 0.00 0.43 0.43 37 1002.7
20260509225501 21 278 22.5 41.8 0.00 0.43 0.43 37 1002.5
20260509225459 21 278 22.5 40.2 0.00 0.43 0.43 37 1002.5
20260509225002 21 274 22.5 40.2 0.00 0.43 0.43 38 1002.4
20260509224959 21 271 22.5 40.2 0.00 0.43 0.43 38 1002.4
20260509224522 21 266 24.1 45.1 0.00 0.43 0.43 38 1002.1
20260509224459 21 265 24.1 48.3 0.00 0.43 0.43 39 1002.1
20260509224002 21 265 24.1 48.3 0.00 0.43 0.43 39 1002.0
20260509223959 21 266 20.9 48.3 0.00 0.43 0.43 38 1002.0
20260509223501 21 271 20.9 48.3 0.00 0.43 0.43 39 1002.0
20260509223459 21 271 20.9 40.2 0.00 0.43 0.43 39 1001.9
20260509223001 21 267 19.3 40.2 0.00 0.43 0.43 39 1001.9
20260509222959 21 266 20.9 40.2 0.00 0.43 0.43 39 1001.9
20260509222502 21 260 17.7 38.6 0.00 0.43 0.43 38 1001.9
20260509222459 21 261 17.7 38.6 0.00 0.43 0.43 39 1001.7
20260509222001 21 267 17.7 38.6 0.00 0.43 0.43 39 1001.7
20260509221959 21 268 19.3 37.0 0.00 0.43 0.43 39 1001.6
20260509221501 21 273 22.5 41.8 0.00 0.43 0.43 38 1001.6
20260509221459 21 274 24.1 41.8 0.00 0.43 0.43 38 1001.6
20260509221001 21 274 22.5 41.8 0.00 0.43 0.43 38 1001.6
20260509220959 21 273 22.5 41.8 0.00 0.43 0.43 38 1001.8
20260509220501 21 273 19.3 41.8 0.00 0.43 0.43 37 1001.4
20260509220459 21 272 19.3 37.0 0.00 0.43 0.43 38 1001.5
20260509220001 21 272 22.5 46.7 0.00 0.43 0.43 38 1001.5
20260509215959 21 271 20.9 46.7 0.00 0.43 0.43 38 1001.5
20260509215501 21 269 19.3 46.7 0.00 0.43 0.43 37 1001.5
20260509215458 21 268 17.7 46.7 0.00 0.43 0.43 38 1001.3
20260509215002 21 269 17.7 35.4 0.00 0.43 0.43 40 1001.3
20260509214958 21 272 17.7 35.4 0.00 0.43 0.43 40 1001.3
20260509214501 21 266 16.1 35.4 0.00 0.43 0.43 39 1001.1
20260509214458 21 262 16.1 35.4 0.00 0.43 0.43 39 1001.1
20260509214001 21 250 16.1 32.2 0.00 0.43 0.43 40 1001.2
20260509213958 21 247 16.1 32.2 0.00 0.43 0.43 41 1001.2
20260509213502 21 258 17.7 33.8 0.00 0.43 0.43 40 1001.0
20260509213458 21 260 17.7 33.8 0.00 0.43 0.43 40 1001.0
20260509213002 21 263 17.7 33.8 0.00 0.43 0.43 41 1001.1
20260509212958 21 264 16.1 33.8 0.00 0.43 0.43 41 1001.1
20260509212501 21 255 14.5 32.2 0.00 0.43 0.43 42 1001.1
20260509212458 21 254 14.5 32.2 0.00 0.43 0.43 43 1001.1
20260509212022 21 255 14.5 30.6 0.00 0.43 0.43 43 1001.2
20260509211958 21 258 16.1 30.6 0.00 0.43 0.43 44 1001.2
20260509211502 21 263 16.1 32.2 0.00 0.43 0.43 44 1001.1
20260509211458 21 266 17.7 32.2 0.00 0.43 0.43 46 1001.1
20260509211001 20 270 16.1 33.8 0.00 0.43 0.43 47 1001.3
20260509210958 20 271 16.1 33.8 0.00 0.43 0.43 46 1001.2
20260509210501 20 275 14.5 33.8 0.00 0.43 0.43 54 1001.2
20260509210458 20 275 12.9 33.8 0.00 0.43 0.43 54 1001.3
20260509210023 20 285 11.3 27.4 0.00 0.43 0.43 58 1001.3
20260509205958 20 280 9.7 27.4 0.00 0.43 0.43 60 1001.3
20260509205501 20 271 11.3 22.5 0.00 0.43 0.43 61 1001.2
20260509205458 20 268 12.9 22.5 0.00 0.43 0.43 61 1001.3
20260509205002 19 269 12.9 22.5 0.00 0.43 0.43 63 1001.4
20260509204957 19 274 11.3 22.5 0.00 0.43 0.43 63 1001.5
20260509204502 18 289 11.3 22.5 0.00 0.43 0.43 65 1001.6
20260509204457 18 292 11.3 22.5 0.00 0.43 0.43 65 1001.6
20260509204001 18 294 11.3 22.5 0.00 0.43 0.43 69 1001.4
20260509203957 18 293 11.3 22.5 0.00 0.43 0.43 68 1001.5
20260509203502 17 279 8.0 19.3 0.00 0.43 0.43 70 1001.6
20260509203457 17 273 6.4 17.7 0.03 0.43 0.43 73 1001.7
20260509203002 17 241 4.8 9.7 0.15 0.43 0.43 77 1001.8
20260509202957 17 235 4.8 8.0 0.20 0.43 0.43 77 1001.8
20260509202502 17 237 4.8 8.0 0.30 0.43 0.43 80 1001.9
20260509202457 17 238 4.8 8.0 0.30 0.43 0.43 80 1002.0
20260509202002 16 235 4.8 8.0 0.30 0.43 0.43 82 1001.9
20260509201957 16 235 3.2 8.0 0.30 0.43 0.43 82 1001.9
20260509201502 16 232 3.2 8.0 0.33 0.43 0.43 83 1002.1
20260509201457 16 232 3.2 8.0 0.33 0.43 0.43 83 1002.1
20260509201001 16 232 3.2 8.0 0.33 0.43 0.43 85 1002.0
20260509200957 16 232 3.2 8.0 0.33 0.43 0.43 85 1002.0
20260509200501 15 231 1.6 6.4 0.36 0.43 0.43 86 1002.0
20260509200457 15 230 3.2 6.4 0.36 0.43 0.43 86 1002.0
20260509200023 15 228 1.6 6.4 0.36 0.43 0.43 86 1002.0
20260509195957 15 227 1.6 6.4 0.36 0.43 0.43 86 1002.0
20260509195502 15 228 1.6 6.4 0.43 0.43 0.43 85 1002.2
20260509195457 15 228 3.2 8.0 0.43 0.43 0.43 86 1002.2
20260509195001 15 241 3.2 12.9 0.43 0.43 0.43 86 1002.1
20260509194957 15 245 3.2 12.9 0.43 0.43 0.43 86 1002.2
20260509194502 14 253 6.4 12.9 0.43 0.43 0.43 82 1002.2
20260509194457 14 255 6.4 19.3 0.43 0.43 0.43 81 1002.2
20260509194023 14 251 9.7 19.3 0.43 0.43 0.43 79 1002.1
20260509193957 14 254 11.3 29.0 0.43 0.43 0.43 77 1002.1
20260509193502 15 269 16.1 48.3 0.41 0.41 0.41 74 1002.3
20260509193457 15 273 17.7 48.3 0.41 0.41 0.41 73 1002.1
20260509193002 16 281 19.3 48.3 0.28 0.28 0.28 72 1002.7
20260509192956 16 282 19.3 48.3 0.23 0.23 0.23 71 1002.8